Tracking 19293 objects as of 21-Nov-2018
HD Live streaming from Space Station
objects crossing your sky now

HOT BIRD 1

Track HOT BIRD 1 now!
HOT BIRD 1 is classified as:


NORAD ID: 23537
Int'l Code: 1995-016B
Perigee: 36,059.4 km
Apogee: 36,070.2 km
Inclination: 9.7 °
Period: 1,450.0 minutes
Semi major axis: 42435 km
RCS: 7.9621 m2 (large)
Launch date: March 28, 1995
Source: European Telecommunications Satellite Organization (EUTE)
Launch site: FRENCH GUIANA (FRGUI)

Cable programming; direct-to-home broadcasting; 16 channels, Western Europe
aabbcc
Your satellite tracking list
Your tracking list is empty




NASA's NSSDC Master Catalog

Two Line Element Set (TLE):
1 23537U 95016B   18324.52516738  .00000054  00000-0  00000+0 0  9994
2 23537   9.6987  41.0234 0001277 310.9659 143.6018  0.99312589 86255
Source of the keplerian elements: AFSPC